Weather in Bekrenevo

Russia / Yaroslavl Oblast     57°31′22″N   39°49′51″E
temp.,
°C
wind,
m/s
gust,
m/s
humid.,
%
clouds,
%
prec.,
mm/h
press.,
hPa
HPBL,
m
11 april, sun
sun1100:00+2ssw615715 0.0 1024307
03:00+1ssw512785 0.0 1024237
06:00+1ssw38855 0.0 1026149
09:00+6wsw34726 0.0 1028338
12:00+9sw346566 0.0 1029918
15:00+11wsw3464100 0.0 10301062
18:00+9nne2378100 0.0 103183
21:00+7ene2384100 0.0 103261
12 april, mon
mon1200:00+7s2382100 0.0 103360
03:00+5s338157 0.0 103434
06:00+5s358262 0.0 1034101
09:00+9sse466512 0.0 1034343
12:00+13se575291 0.0 1033865
15:00+14ese6851100 0.0 1031988
18:00+12ese51061100 0.0 1030667
21:00+8se51170100 0.0 1030475
13 april, tue
tue1300:00+7se3983100 0.0 1028315
03:00+6se3796100 0.0 1027158
06:00+5se3797100 0.0 1025145
09:00+11s4874100 0.0 1024314
12:00+15s51059100 0.0 1023610
15:00+16ssw5960100 0.0 1022851
18:00+15ssw3572100 0.1 102193
21:00+12se018192 0.8 102113
14 april, wed
wed1400:00+10s3578100 0.0 102183
03:00+10s2280100 0.0 102030
06:00+9sse367976 0.0 1019116
09:00+13ssw486480 0.0 1019355
12:00+15sw5861100 0.0 1019663
15:00+17wsw466085 0.0 1019978
18:00+12nnw5784100 0.6 1018245
21:00+9n4795100 3.8 1020344
15 april, thu
thu1500:00+8nne4893100 2.6 1020401
03:00+7n5888100 2.7 1020416
06:00+5n5983100 0.4 1020404
09:00+5n487897 0.5 1020403
12:00+8n4561100 0.0 1020895
15:00+8n5655100 0.1 10191149
18:00+7nnw6860100 0.0 1020957
21:00+4nnw51067100 0.0 1020353